Hourly Data Report for August 10, 2006

TORONTO CITY
ONTARIO

43°40'00.000" N
79°24'00.000" W
112.50 m
6158355
71508
XTO

Download Data

Hourly Data (August 2006)
Hourly Data Report for August 10, 2006
TIME
LST
Temp Definition
°C
Dew Point Definition
°C
Rel Hum Definition
%
Precip. Amount Definition
mm

Wind Dir Definition
10's deg

Wind Spd Definition
km/h
Visibility Definition
km
Stn Press Definition
kPa
Hmdx Definition


Wind Chill Definition


Weather Definition


00:00 21.1 14.8 67   LegendMM LegendMM   99.99 25   LegendNANA
01:00 20.9 14.4 66   LegendMM LegendMM   99.96 25   LegendNANA
02:00 20.9 13.7 63   LegendMM LegendMM   99.90     LegendNANA
03:00 20.2 14.4 69   LegendMM LegendMM   99.94     LegendNANA
04:00 19.7 14.6 72   LegendMM LegendMM   99.91     LegendNANA
05:00 19.4 14.6 74   LegendMM LegendMM   99.92     LegendNANA
06:00 19.9 13.9 68   LegendMM LegendMM   99.89     LegendNANA
07:00 20.7 14.6 68   LegendMM LegendMM   99.85     LegendNANA
08:00 21.5 15.0 66   LegendMM LegendMM   99.86 25   LegendNANA
09:00 23.7 17.1 67   LegendMM LegendMM   99.84 29   LegendNANA
10:00 24.2 17.1 65   LegendMM LegendMM   99.83 30   LegendNANA
11:00 24.6 17.5 65   LegendMM LegendMM   99.85 30   LegendNANA
12:00 25.5 19.0 67   LegendMM LegendMM   99.82 32   LegendNANA
13:00 23.8 17.9 70   LegendMM LegendMM   99.80 30   LegendNANA
14:00 25.0 18.2 66   LegendMM LegendMM   99.82 31   LegendNANA
15:00 24.7 17.3 63   LegendMM LegendMM   99.85 30   LegendNANA
16:00 24.9 16.9 61   LegendMM LegendMM   99.85 30   LegendNANA
17:00 24.5 15.9 59   LegendMM LegendMM   99.83 29   LegendNANA
18:00 24.4 15.3 57   LegendMM LegendMM   99.85 29   LegendNANA
19:00 23.0 14.6 59   LegendMM LegendMM   99.89 27   LegendNANA
20:00 22.4 13.3 56   LegendMM LegendMM   99.95 25   LegendNANA
21:00 21.9 12.3 54   LegendMM LegendMM   100.01     LegendNANA
22:00 20.7 11.4 55   LegendMM LegendMM   100.05     LegendNANA
23:00 19.5 10.1 55   LegendMM LegendMM   100.14     LegendNANA

Notes on Data Quality.

Legend

  • E = Estimated
  • M = Missing
  • NA = Not Available*
  • [empty] = Indicates an unobserved value
Date modified: